GW5619 Weather Reports


time (UTC)temp
C
wind
direction
speed
KPH
gust
KPH
rain 1hr
cm
rain 24hr
cm
rain mn
cm
humidity
%
barometer
mb
20260510083038 20 355 3.2 3.2 0.00 0.00 0.00 80 1016.1
20260510082535 20 289 1.6 3.2 0.00 0.00 0.00 79 1015.8
20260510082030 20 331 1.6 4.8 0.00 0.00 0.00 79 1016.0
20260510081525 20 13 0.0 1.6 0.00 0.00 0.00 78 1015.9
20260510081021 20 295 3.2 4.8 0.00 0.00 0.00 77 1016.0
20260510080520 20 0 1.6 9.7 0.00 0.00 0.00 75 1016.0
20260510080018 20 285 3.2 3.2 0.00 0.00 0.00 74 1015.9
20260510075515 20 30 0.0 0.0 0.00 0.00 0.00 74 1015.8
20260510075012 20 74 1.6 3.2 0.00 0.00 0.00 73 1015.8
20260510074510 20 357 3.2 6.4 0.00 0.00 0.00 72 1015.9
20260510074005 20 8 0.0 1.6 0.00 0.00 0.00 72 1015.7
20260510073501 20 45 0.0 1.6 0.00 0.00 0.00 71 1015.7
20260510072957 20 83 1.6 4.8 0.00 0.00 0.00 71 1015.8
20260510072454 20 27 0.0 0.0 0.00 0.00 0.00 68 1015.7
20260510071950 20 352 1.6 3.2 0.00 0.00 0.00 67 1015.9
20260510071446 20 35 0.0 3.2 0.00 0.00 0.00 67 1015.6
20260510070944 20 17 0.0 1.6 0.00 0.00 0.00 66 1015.6
20260510070442 20 69 1.6 1.6 0.00 0.00 0.00 66 1015.7
20260510065937 20 65 0.0 1.6 0.00 0.00 0.00 65 1015.6
20260510065434 20 20 1.6 4.8 0.00 0.00 0.00 66 1015.6
20260510064930 20 24 0.0 1.6 0.00 0.00 0.00 66 1015.8
20260510064428 20 41 0.0 1.6 0.00 0.00 0.00 66 1015.7
20260510063925 20 9 0.0 1.6 0.00 0.00 0.00 66 1015.9
20260510063420 20 39 0.0 0.0 0.00 0.00 0.00 66 1015.8
20260510062919 20 24 0.0 1.6 0.00 0.00 0.00 65 1015.9
20260510062413 20 40 0.0 0.0 0.00 0.00 0.00 66 1015.9
20260510061909 20 41 0.0 1.6 0.00 0.00 0.00 65 1015.8
20260510061406 20 53 0.0 0.0 0.00 0.00 0.00 65 1016.0
20260510060902 20 35 0.0 0.0 0.00 0.00 0.00 65 1015.9
20260510060359 20 18 0.0 0.0 0.00 0.00 0.00 64 1015.8
20260510055855 20 30 0.0 1.6 0.00 0.00 0.00 64 1015.8
20260510055356 20 19 0.0 3.2 0.00 0.00 0.00 63 1015.8
20260510054854 20 26 0.0 3.2 0.00 0.00 0.00 64 1016.0
20260510054350 20 0 1.6 1.6 0.00 0.00 0.00 63 1016.2
20260510053845 20 325 1.6 3.2 0.00 0.00 0.00 63 1016.3
20260510053341 20 18 0.0 4.8 0.00 0.00 0.00 63 1016.2
20260510052837 20 30 1.6 4.8 0.00 0.00 0.00 63 1016.1
20260510052333 20 111 0.0 3.2 0.00 0.00 0.00 64 1015.7
20260510051829 20 57 0.0 1.6 0.00 0.00 0.00 64 1016.1
20260510051326 20 36 0.0 1.6 0.00 0.00 0.00 64 1015.9
20260510050823 20 25 0.0 0.0 0.00 0.00 0.00 63 1016.2
20260510050320 20 17 0.0 3.2 0.00 0.00 0.00 62 1015.8
20260510045817 19 336 1.6 3.2 0.00 0.00 0.00 62 1015.8
20260510045314 20 36 0.0 0.0 0.00 0.00 0.00 62 1015.9
20260510044811 20 5 0.0 0.0 0.00 0.00 0.00 62 1015.7
20260510044308 20 26 0.0 0.0 0.00 0.00 0.00 61 1015.7
20260510043804 19 0 3.2 4.8 0.00 0.00 0.00 61 1015.6
20260510043300 20 28 0.0 0.0 0.00 0.00 0.00 61 1015.6
20260510042758 19 61 0.0 0.0 0.00 0.00 0.00 60 1015.5
20260510042253 19 15 0.0 1.6 0.00 0.00 0.00 60 1015.3
20260510041750 19 52 0.0 1.6 0.00 0.00 0.00 60 1015.4
20260510041247 19 14 1.6 1.6 0.00 0.00 0.00 61 1015.2
20260510040745 20 34 0.0 1.6 0.00 0.00 0.00 59 1015.3
20260510040242 20 29 0.0 1.6 0.00 0.00 0.00 60 1015.4
20260510035737 19 38 0.0 0.0 0.00 0.00 0.00 60 1015.2
20260510035233 20 44 0.0 0.0 0.00 0.00 0.00 58 1015.2
20260510034729 20 40 0.0 0.0 0.00 0.00 0.00 56 1015.2
20260510034227 20 32 0.0 4.8 0.00 0.00 0.00 56 1015.0
20260510033722 20 36 0.0 0.0 0.00 0.00 0.00 57 1015.0
20260510033221 20 12 0.0 1.6 0.00 0.00 0.00 57 1014.9
20260510032717 19 41 0.0 1.6 0.00 0.00 0.00 60 1014.8
20260510032212 19 18 0.0 0.0 0.00 0.00 0.00 61 1015.1
20260510031707 18 36 0.0 0.0 0.00 0.00 0.00 60 1014.9
20260510031204 18 45 0.0 0.0 0.00 0.00 0.00 61 1014.9
20260510030658 18 34 0.0 0.0 0.00 0.00 0.00 61 1015.0
20260510030156 18 54 0.0 0.0 0.00 0.00 0.00 62 1014.9
20260510025653 18 39 0.0 0.0 0.00 0.00 0.00 61 1014.6
20260510025150 18 38 0.0 0.0 0.00 0.00 0.00 62 1014.7
20260510024647 18 43 0.0 0.0 0.00 0.00 0.00 61 1014.6
20260510024143 18 45 0.0 0.0 0.00 0.00 0.00 61 1014.4
20260510023639 18 36 0.0 0.0 0.00 0.00 0.00 60 1014.4
20260510023137 18 40 0.0 0.0 0.00 0.00 0.00 59 1014.4
20260510022636 18 41 0.0 0.0 0.00 0.00 0.00 58 1014.1
20260510022132 19 20 0.0 0.0 0.00 0.00 0.00 55 1014.3
20260510021628 19 43 0.0 0.0 0.00 0.00 0.00 54 1013.9
20260510021126 19 40 0.0 0.0 0.00 0.00 0.00 54 1013.8
20260510020619 19 36 0.0 0.0 0.00 0.00 0.00 53 1013.7
20260510020115 19 42 0.0 0.0 0.00 0.00 0.00 50 1013.8
20260510015611 19 37 0.0 0.0 0.00 0.00 0.00 50 1013.6
20260510015108 20 39 0.0 0.0 0.00 0.00 0.00 51 1013.6
20260510014603 20 39 0.0 0.0 0.00 0.00 0.00 49 1013.4
20260510014101 20 44 0.0 0.0 0.00 0.00 0.00 48 1013.4
20260510013555 20 36 0.0 0.0 0.00 0.00 0.00 49 1013.4
20260510013052 20 48 0.0 0.0 0.00 0.00 0.00 49 1013.2
20260510012551 20 37 0.0 0.0 0.00 0.00 0.00 49 1013.4
20260510012048 20 36 0.0 0.0 0.00 0.00 0.00 50 1013.1
20260510011547 20 39 0.0 0.0 0.00 0.00 0.00 50 1013.2
20260510011043 20 36 0.0 0.0 0.00 0.00 0.00 48 1013.3
20260510010540 20 40 0.0 0.0 0.00 0.00 0.00 50 1013.2
20260510010037 20 43 0.0 0.0 0.00 0.00 0.00 47 1012.9
20260510005533 20 41 0.0 0.0 0.00 0.00 0.00 46 1013.1
20260510005031 21 41 0.0 0.0 0.00 0.00 0.00 46 1013.0
20260510004528 21 42 0.0 0.0 0.00 0.00 0.00 44 1013.0
20260510004026 21 42 0.0 0.0 0.00 0.00 0.00 46 1013.1
20260510003522 21 34 0.0 0.0 0.00 0.00 0.00 43 1012.8
20260510003018 21 43 0.0 0.0 0.00 0.00 0.00 44 1012.8
20260510002514 22 43 0.0 0.0 0.00 0.00 0.00 44 1012.9
20260510002011 22 39 0.0 0.0 0.00 0.00 0.00 44 1012.8
20260510001508 22 39 0.0 0.0 0.00 0.00 0.00 45 1012.7
20260510001006 23 39 0.0 0.0 0.00 0.00 0.00 44 1012.9
20260510000501 23 38 0.0 0.0 0.00 0.00 0.00 42 1012.7
20260509235958 23 37 0.0 0.0 0.00 0.00 0.00 41 1012.7
20260509235455 24 34 0.0 0.0 0.00 0.00 0.00 40 1012.7
20260509234951 25 31 0.0 0.0 0.00 0.00 0.00 39 1012.7
20260509234448 25 39 0.0 0.0 0.00 0.00 0.00 40 1012.6
20260509233946 26 43 0.0 0.0 0.00 0.00 0.00 39 1012.7
20260509233443 26 33 0.0 0.0 0.00 0.00 0.00 37 1012.5
20260509232939 29 20 0.0 0.0 0.00 0.00 0.00 31 1012.6
20260509232437 28 22 0.0 0.0 0.00 0.00 0.00 32 1012.6
20260509231932 28 21 0.0 0.0 0.00 0.00 0.00 32 1012.5
20260509231430 29 25 0.0 1.6 0.00 0.00 0.00 35 1012.5
20260509230928 28 357 0.0 1.6 0.00 0.00 0.00 29 1012.5
20260509230424 29 23 0.0 3.2 0.00 0.00 0.00 34 1012.5
20260509225920 30 21 0.0 0.0 0.00 0.00 0.00 31 1012.4
20260509225417 31 19 0.0 0.0 0.00 0.00 0.00 32 1012.3
20260509224913 31 14 0.0 0.0 0.00 0.00 0.00 32 1012.3
20260509224413 30 24 0.0 0.0 0.00 0.00 0.00 31 1012.3
20260509223911 30 25 0.0 0.0 0.00 0.00 0.00 32 1012.3
20260509223408 31 25 0.0 0.0 0.00 0.00 0.00 36 1012.2
20260509222905 31 347 0.0 0.0 0.00 0.00 0.00 25 1012.3
20260509222400 29 25 0.0 0.0 0.00 0.00 0.00 28 1012.2
20260509221855 29 24 0.0 0.0 0.00 0.00 0.00 25 1012.3
20260509221353 31 35 0.0 0.0 0.00 0.00 0.00 31 1012.2
20260509220849 31 14 0.0 0.0 0.00 0.00 0.00 31 1012.2
20260509220345 30 14 0.0 1.6 0.00 0.00 0.00 25 1012.3
20260509215840 30 7 0.0 1.6 0.00 0.00 0.00 31 1012.3
20260509215337 30 49 0.0 0.0 0.00 0.00 0.00 27 1012.3
20260509214834 31 11 0.0 3.2 0.00 0.00 0.00 24 1012.4
20260509214332 30 25 0.0 0.0 0.00 0.00 0.00 25 1012.2
20260509213829 30 30 0.0 0.0 0.00 0.00 0.00 24 1012.4
20260509213324 30 309 3.2 4.8 0.00 0.00 0.00 23 1012.5
20260509212821 30 42 1.6 1.6 0.00 0.00 0.00 23 1012.5
20260509212319 29 44 1.6 1.6 0.00 0.00 0.00 27 1012.5
20260509211815 30 109 1.6 3.2 0.00 0.00 0.00 28 1012.4
20260509211311 31 18 1.6 3.2 0.00 0.00 0.00 26 1012.4
20260509210808 30 36 0.0 1.6 0.00 0.00 0.00 26 1012.5
20260509210305 31 8 0.0 0.0 0.00 0.00 0.00 27 1012.5
20260509205804 30 342 1.6 1.6 0.00 0.00 0.00 23 1012.7
20260509205300 30 36 3.2 6.4 0.00 0.00 0.00 25 1013.0
20260509204756 30 288 4.8 4.8 0.00 0.00 0.00 22 1012.8
20260509204252 30 297 1.6 3.2 0.00 0.00 0.00 26 1012.8
20260509203748 31 333 3.2 4.8 0.00 0.00 0.00 24 1013.0
20260509203246 31 344 1.6 3.2 0.00 0.00 0.00 28 1012.9
20260509202742 31 53 1.6 1.6 0.00 0.00 0.00 28 1013.1
20260509202238 31 322 1.6 3.2 0.00 0.00 0.00 30 1012.9
20260509201733 31 4 0.0 3.2 0.00 0.00 0.00 29 1013.2
20260509201229 30 30 0.0 1.6 0.00 0.00 0.00 24 1013.0
20260509200726 31 38 0.0 1.6 0.00 0.00 0.00 25 1013.3
20260509200221 31 15 0.0 1.6 0.00 0.00 0.00 27 1013.4
20260509195717 31 9 0.0 0.0 0.00 0.00 0.00 28 1013.1
20260509195213 30 314 3.2 3.2 0.00 0.00 0.00 28 1013.5
20260509194712 30 32 0.0 1.6 0.00 0.00 0.00 25 1013.7
20260509194209 30 23 0.0 0.0 0.00 0.00 0.00 26 1013.7
20260509193707 29 288 0.0 3.2 0.00 0.00 0.00 33 1013.5
20260509193206 30 43 1.6 3.2 0.00 0.00 0.00 26 1013.5
20260509192703 30 16 0.0 1.6 0.00 0.00 0.00 26 1013.5
20260509192158 28 238 0.0 1.6 0.00 0.00 0.00 27 1013.6
20260509191653 29 19 0.0 3.2 0.00 0.00 0.00 26 1013.6
20260509191150 29 319 0.0 1.6 0.00 0.00 0.00 34 1013.6
20260509190646 29 300 3.2 4.8 0.00 0.00 0.00 28 1013.6
20260509190143 28 312 3.2 4.8 0.00 0.00 0.00 28 1013.6
20260509185641 28 83 1.6 1.6 0.00 0.00 0.00 25 1013.5
20260509185137 28 348 0.0 1.6 0.00 0.00 0.00 26 1013.6
20260509184635 28 332 0.0 3.2 0.00 0.00 0.00 25 1013.6
20260509184131 27 334 3.2 4.8 0.00 0.00 0.00 27 1013.6
20260509183628 27 15 0.0 6.4 0.00 0.00 0.00 29 1013.6
20260509183123 27 359 3.2 6.4 0.00 0.00 0.00 32 1013.5
20260509182619 27 277 3.2 4.8 0.00 0.00 0.00 29 1013.7
20260509182116 26 27 0.0 0.0 0.00 0.00 0.00 29 1013.6
20260509181615 26 68 0.0 1.6 0.00 0.00 0.00 29 1013.6
20260509181112 26 109 1.6 3.2 0.00 0.00 0.00 29 1013.4
20260509180608 25 101 1.6 3.2 0.00 0.00 0.00 31 1013.5
20260509180105 25 105 0.0 1.6 0.00 0.00 0.00 32 1013.6
20260509175600 25 81 0.0 1.6 0.00 0.00 0.00 35 1013.4
20260509175058 25 82 1.6 3.2 0.00 0.00 0.00 30 1013.4
20260509174554 25 98 0.0 3.2 0.00 0.00 0.00 33 1013.3
20260509174049 24 307 4.8 4.8 0.00 0.00 0.00 39 1013.2
20260509173544 25 159 3.2 4.8 0.00 0.00 0.00 34 1013.3
20260509173041 25 0 1.6 4.8 0.00 0.00 0.00 37 1013.4
20260509172538 25 294 3.2 4.8 0.00 0.00 0.00 42 1013.5
20260509172033 25 18 0.0 0.0 0.00 0.00 0.00 42 1013.7
20260509171530 25 28 0.0 4.8 0.00 0.00 0.00 38 1013.7
20260509171026 25 50 0.0 1.6 0.00 0.00 0.00 41 1013.6
20260509170522 24 46 0.0 0.0 0.00 0.00 0.00 42 1013.5
20260509170018 24 23 0.0 3.2 0.00 0.00 0.00 48 1013.5
20260509165517 23 14 0.0 0.0 0.00 0.00 0.00 43 1013.6
20260509165012 23 265 1.6 3.2 0.00 0.00 0.00 47 1013.7
20260509164509 23 348 1.6 3.2 0.00 0.00 0.00 41 1013.8
20260509164004 23 40 3.2 4.8 0.00 0.00 0.00 40 1013.4
20260509163502 23 335 1.6 3.2 0.00 0.00 0.00 44 1013.5
20260509163001 23 55 0.0 1.6 0.00 0.00 0.00 50 1013.5
20260509162500 23 55 0.0 4.8 0.00 0.00 0.00 52 1013.5
20260509161955 23 323 3.2 3.2 0.00 0.00 0.00 48 1013.8
20260509161452 23 22 1.6 1.6 0.00 0.00 0.00 45 1013.5
20260509160947 23 30 0.0 1.6 0.00 0.00 0.00 45 1013.5
20260509160443 23 53 0.0 1.6 0.00 0.00 0.00 58 1013.4
20260509155939 22 63 1.6 3.2 0.00 0.00 0.00 59 1013.6
20260509155436 22 54 0.0 0.0 0.00 0.00 0.00 54 1013.6
20260509154932 22 43 0.0 1.6 0.00 0.00 0.00 51 1013.5
20260509154428 22 33 0.0 1.6 0.00 0.00 0.00 55 1013.5
20260509153926 21 21 1.6 3.2 0.00 0.00 0.00 58 1013.5
20260509153423 21 287 3.2 11.3 0.00 0.00 0.00 60 1013.4
20260509152920 21 202 3.2 4.8 0.00 0.00 0.00 59 1013.5
20260509152415 20 11 0.0 4.8 0.00 0.00 0.00 64 1013.4
20260509151913 20 211 3.2 9.7 0.00 0.00 0.00 63 1013.5
20260509151408 20 290 3.2 4.8 0.00 0.00 0.00 65 1013.5
20260509150907 20 51 0.0 3.2 0.00 0.00 0.00 67 1013.5
20260509150404 20 114 4.8 9.7 0.00 0.00 0.00 67 1013.4
20260509145903 20 301 1.6 6.4 0.00 0.00 0.00 69 1013.4
20260509145402 20 47 0.0 0.0 0.00 0.00 0.00 69 1013.6
20260509144858 20 65 0.0 0.0 0.00 0.00 0.00 72 1013.4
20260509144355 20 288 1.6 3.2 0.00 0.00 0.00 70 1013.4
20260509143852 20 308 3.2 6.4 0.00 0.00 0.00 69 1013.4
20260509143350 20 45 3.2 11.3 0.00 0.00 0.00 68 1013.4
20260509142846 20 43 1.6 3.2 0.00 0.00 0.00 69 1013.6
20260509142342 20 36 0.0 3.2 0.00 0.00 0.00 70 1013.3
20260509141837 20 6 1.6 1.6 0.00 0.00 0.00 72 1013.5
20260509141335 20 17 0.0 0.0 0.00 0.00 0.00 71 1013.4
20260509140831 19 67 1.6 3.2 0.00 0.00 0.00 72 1013.4
20260509140328 19 94 0.0 0.0 0.00 0.00 0.00 73 1013.1
20260509135827 19 47 0.0 1.6 0.00 0.00 0.00 74 1013.2
20260509135324 18 61 0.0 3.2 0.00 0.00 0.00 74 1013.2
20260509134821 19 48 0.0 0.0 0.00 0.00 0.00 76 1013.4
20260509134318 18 55 0.0 3.2 0.00 0.00 0.00 75 1013.3
20260509133815 18 81 0.0 4.8 0.00 0.00 0.00 75 1013.1
20260509133311 18 33 0.0 3.2 0.00 0.00 0.00 75 1012.9
20260509132810 18 305 6.4 9.7 0.00 0.00 0.00 76 1013.1
20260509132309 17 285 1.6 3.2 0.00 0.00 0.00 79 1012.9
20260509131805 17 72 1.6 3.2 0.00 0.00 0.00 79 1012.9
20260509131302 17 58 0.0 3.2 0.00 0.00 0.00 80 1012.7
20260509130758 16 42 0.0 0.0 0.00 0.00 0.00 81 1012.7
20260509130254 16 345 3.2 4.8 0.00 0.00 0.00 81 1012.8
20260509125750 16 77 3.2 3.2 0.00 0.00 0.00 83 1012.9
20260509125247 16 355 0.0 3.2 0.00 0.00 0.00 84 1012.7
20260509124744 16 340 1.6 3.2 0.00 0.00 0.00 84 1012.6
20260509124240 15 46 0.0 3.2 0.00 0.00 0.00 85 1012.6
20260509123738 15 25 0.0 0.0 0.00 0.00 0.00 86 1012.7
20260509123235 15 54 1.6 3.2 0.00 0.00 0.00 86 1012.7
20260509122731 15 21 0.0 1.6 0.00 0.00 0.00 85 1012.7
20260509122228 15 41 0.0 0.0 0.00 0.00 0.00 86 1012.6
20260509121725 15 29 0.0 3.2 0.00 0.00 0.00 86 1012.4
20260509121222 15 41 0.0 3.2 0.00 0.00 0.00 87 1012.5
20260509120721 15 40 0.0 1.6 0.00 0.00 0.00 87 1012.3
20260509120218 15 42 0.0 1.6 0.00 0.00 0.00 88 1012.2
20260509115715 14 359 3.2 4.8 0.00 0.00 0.00 89 1012.2
20260509115213 13 48 0.0 1.6 0.00 0.00 0.00 91 1012.1
20260509114711 13 13 0.0 1.6 0.00 0.00 0.00 94 1012.1
20260509114209 13 57 0.0 1.6 0.00 0.00 0.00 94 1011.8
20260509113708 13 16 0.0 0.0 0.00 0.00 0.00 95 1012.0
20260509113204 13 11 0.0 1.6 0.00 0.00 0.00 95 1012.1
20260509112701 12 12 0.0 0.0 0.00 0.00 0.00 96 1012.0
20260509112158 12 29 1.6 3.2 0.00 0.00 0.00 97 1011.8
20260509111655 12 24 0.0 0.0 0.00 0.00 0.00 97 1011.8
20260509111152 12 0 0.0 0.0 0.00 0.00 0.00 97 1011.8
20260509110649 12 16 0.0 0.0 0.00 0.00 0.00 97 1011.7
20260509110146 12 19 0.0 0.0 0.00 0.00 0.00 97 1011.7
20260509105644 12 22 0.0 0.0 0.00 0.00 0.00 97 1011.5
20260509105141 12 25 0.0 0.0 0.00 0.00 0.00 97 1011.7
20260509104638 12 21 0.0 0.0 0.00 0.00 0.00 97 1011.6
20260509104135 12 31 0.0 0.0 0.00 0.00 0.00 97 1011.7
20260509103633 12 14 0.0 0.0 0.00 0.00 0.00 97 1011.8
20260509103131 12 22 0.0 0.0 0.00 0.00 0.00 97 1011.8
20260509102628 12 23 0.0 0.0 0.00 0.00 0.00 96 1011.7
20260509102125 12 19 0.0 0.0 0.00 0.00 0.00 96 1011.5
20260509101621 12 19 0.0 0.0 0.00 0.00 0.00 96 1011.7
20260509101118 12 24 0.0 0.0 0.00 0.00 0.00 96 1011.4
20260509100615 12 19 0.0 0.0 0.00 0.00 0.00 96 1011.5
20260509100112 12 33 0.0 0.0 0.00 0.00 0.00 96 1011.6
20260509095608 12 9 0.0 0.0 0.00 0.00 0.00 96 1011.7
20260509095106 12 24 0.0 0.0 0.00 0.00 0.00 96 1011.4
20260509094602 12 24 0.0 0.0 0.00 0.00 0.00 95 1011.6
20260509094100 12 34 0.0 0.0 0.00 0.00 0.00 95 1011.7
20260509093558 12 28 0.0 0.0 0.00 0.00 0.00 95 1011.7
20260509093055 12 26 0.0 0.0 0.00 0.00 0.00 95 1011.7
20260509092552 12 39 0.0 0.0 0.00 0.00 0.00 95 1012.0
20260509092051 12 39 0.0 0.0 0.00 0.00 0.00 95 1011.8
20260509091548 12 39 0.0 0.0 0.00 0.00 0.00 95 1011.8
20260509091045 12 24 0.0 0.0 0.00 0.00 0.00 95 1012.2
20260509090542 12 24 0.0 0.0 0.00 0.00 0.00 95 1012.0
20260509090040 12 40 0.0 0.0 0.00 0.00 0.00 95 1012.1
20260509085537 12 38 0.0 0.0 0.00 0.00 0.00 95 1012.1
20260509085033 12 9 0.0 0.0 0.00 0.00 0.00 95 1012.2
20260509084530 12 44 0.0 0.0 0.00 0.00 0.00 95 1012.2
20260509084027 12 25 0.0 0.0 0.00 0.00 0.00 95 1012.3
20260509083525 12 22 0.0 0.0 0.00 0.00 0.00 95 1012.3